[[{"header":{"parameterUnit":"m.s-1","parameterCategory":1,"la1":30.2992,"la2":30.254,"lo1":-89.0895,"lo2":-89.0443,"dy":0.0025,"dx":0.0025,"nx":19,"ny":19,"refTime":"2026-03-09T03:00:00:Z","depth":0,"parameterNumber":2,"parameterNumberName":"U-component_of_WINDS"},"data":[0,0,0,-1.8427,-1.8427,-1.8429,-1.8429,-1.8438,-1.8439,0,0,0,0,0,0,0,0,0,0,0,-1.843,-1.843,-1.8427,-1.8427,-1.8429,-1.8429,-1.8438,-1.8439,0,0,0,0,0,0,0,0,0,0,0,-1.843,-1.843,-1.843,-1.8427,-1.8429,-1.8429,-1.8438,-1.8434,0,0,0,0,0,0,0,0,0,0,-1.8431,-1.8438,-1.843,-1.843,-1.8427,-1.8429,-1.8429,-1.8434,-1.8435,-1.8441,0,-1.8446,0,-1.8443,-1.844,-1.844,0,0,0,-1.8424,-1.8438,-1.8435,-1.843,-1.8427,-1.8429,-1.8427,-1.8434,-1.8435,-1.8441,-1.8446,-1.8447,-1.8443,-1.844,-1.844,-1.8481,-1.8482,0,0,-1.8424,-1.8433,-1.8434,-1.8435,-1.8435,-1.8427,-1.8427,-1.8435,-1.8441,-1.8446,-1.8447,-1.8443,-1.844,-1.844,-1.8481,-1.8481,0,0,0,-1.8425,-1.8433,-1.8429,-1.8435,-1.8435,-1.8427,-1.8427,-1.8441,-1.8439,-1.8447,-1.8443,-1.844,-1.844,-1.8481,-1.8481,-1.8504,0,0,0,-1.8425,-1.8433,-1.8429,-1.8435,-1.8435,-1.8438,-1.8433,-1.8438,-1.8439,-1.8443,-1.844,-1.844,-1.848,-1.8481,-1.8503,-1.8513,0,0,0,-1.8428,-1.8434,-1.8435,-1.8435,-1.8436,-1.8437,-1.8436,-1.8438,-1.8437,-1.844,-1.844,-1.848,-1.8481,-1.8501,-1.8511,-1.8525,0,0,0,-1.8435,-1.8457,-1.8436,-1.8459,-1.8436,-1.8452,-1.8436,-1.8447,-1.8453,-1.844,-1.848,-1.8481,-1.8501,-1.851,-1.8524,-1.8537,-1.8544,0,0,-1.8467,-1.8461,-1.8474,-1.8456,-1.8477,-1.8451,-1.8476,-1.8473,-1.8466,-1.8477,-1.8478,-1.8503,-1.8511,-1.8525,-1.8583,-1.8588,0,0,0,-1.8488,-1.8497,-1.8501,-1.8506,-1.8504,-1.8503,-1.8496,-1.8495,-1.8503,-1.8473,-1.8513,-1.8517,-1.8525,-1.8531,-1.8536,-1.8541,-1.8485,-1.8485,-1.8484,-1.8546,-1.8535,-1.8555,-1.8545,-1.855,-1.8542,-1.8545,-1.8543,-1.8531,-1.8541,-1.8543,-1.8579,-1.8587,-1.859,-1.8596,-1.8551,-1.8551,-1.8551,-1.8551,-1.8592,-1.8602,-1.8586,-1.8599,-1.8588,-1.86,-1.8593,-1.8584,-1.8594,-1.8577,-1.8583,-1.8564,-1.8597,-1.8601,-1.8553,-1.8552,-1.8552,-1.8552,-1.8552,-1.8627,-1.863,-1.8628,-1.8634,-1.864,-1.8629,-1.8638,-1.8628,-1.8619,-1.8626,-1.8626,-1.8626,-1.8623,-1.8627,-1.8627,-1.8627,-1.8627,-1.8627,-1.8627,-1.8664,-1.8661,-1.8669,-1.8669,-1.867,-1.8671,-1.8664,-1.8665,-1.8664,-1.8656,-1.8656,-1.8643,-1.8602,-1.8591,-1.8629,-1.8629,-1.8629,-1.8629,-1.8628,-1.8711,-1.8699,-1.8712,-1.8713,-1.8712,-1.8718,-1.8705,-1.8709,-1.8709,-1.8714,-1.8699,-1.8671,-1.8664,-1.866,-1.8651,-1.8702,-1.8702,-1.8702,-1.8702,-1.874,-1.8735,-1.8746,-1.8749,-1.8751,-1.874,-1.8755,-1.875,-1.8742,-1.8741,-1.8733,-1.8721,-1.8717,-1.8712,-1.8707,-1.8698,-1.876,-1.876,-1.876,-1.8768,-1.8763,-1.8777,-1.8769,-1.8767,-1.8765,-1.8779,-1.8783,-1.8772,-1.8762,-1.874,-1.8738,-1.8718,-1.8712,-1.87,-1.8692,-1.8676,0,0]},{"header":{"parameterUnit":"m.s-1","parameterCategory":1,"la1":30.2992,"la2":30.254,"lo1":-89.0895,"lo2":-89.0443,"dy":0.0025,"dx":0.0025,"nx":19,"ny":19,"refTime":"2026-03-09T03:00:00:Z","depth":0,"parameterNumber":3,"parameterNumberName":"V-component_of_WINDS"},"data":[0,0,0,3.0475,3.0474,3.0449,3.0449,3.0406,3.0405,0,0,0,0,0,0,0,0,0,0,0,3.0473,3.0473,3.0475,3.0474,3.0449,3.0449,3.0406,3.0405,0,0,0,0,0,0,0,0,0,0,0,3.0474,3.0473,3.0472,3.0474,3.0449,3.0449,3.0406,3.0429,0,0,0,0,0,0,0,0,0,0,3.0455,3.0445,3.0473,3.0472,3.0473,3.0449,3.0449,3.043,3.0428,3.0412,0,3.0394,0,3.0399,3.0402,3.0401,0,0,0,3.048,3.0447,3.0449,3.0472,3.0473,3.0449,3.0462,3.0429,3.0426,3.0408,3.0394,3.0393,3.0398,3.0401,3.0401,3.029,3.0289,0,0,3.0481,3.0464,3.0451,3.0446,3.0448,3.0463,3.0461,3.0427,3.0411,3.0394,3.0392,3.0398,3.0401,3.04,3.029,3.0289,0,0,0,3.0481,3.0465,3.0467,3.0448,3.0444,3.0462,3.046,3.0412,3.0415,3.0391,3.0397,3.0401,3.04,3.0291,3.029,3.0235,0,0,0,3.0482,3.0465,3.0467,3.0457,3.0445,3.0428,3.0446,3.0417,3.0414,3.0397,3.0401,3.0399,3.0292,3.0291,3.0239,3.0212,0,0,0,3.0478,3.0464,3.0458,3.0456,3.0445,3.0429,3.0429,3.0417,3.0417,3.0401,3.0399,3.0293,3.0291,3.0242,3.0217,3.018,0,0,0,3.0468,3.0407,3.0457,3.0391,3.0445,3.0395,3.043,3.0393,3.0373,3.04,3.0292,3.029,3.0243,3.022,3.0183,3.0146,3.0129,0,0,3.0381,3.0396,3.0359,3.0403,3.034,3.04,3.0329,3.0326,3.0339,3.0306,3.0303,3.0237,3.0217,3.0181,3.0036,3.0023,0,0,0,3.0326,3.0299,3.0286,3.0267,3.0265,3.0262,3.0272,3.0272,3.0245,3.0318,3.0214,3.0202,3.0182,3.0165,3.0153,3.0138,3.0281,3.0282,3.0282,3.0178,3.0201,3.0143,3.0164,3.0145,3.0159,3.0147,3.0149,3.0175,3.015,3.014,3.005,3.003,3.0022,3.0005,3.0122,3.0122,3.0122,3.0121,3.0055,3.0022,3.0063,3.0021,3.0046,3.0011,3.0023,3.0044,3.0017,3.0058,3.0041,3.0086,3.0006,2.9993,3.0118,3.0118,3.0119,3.0119,3.0119,2.9961,2.995,2.9952,2.9931,2.9912,2.9936,2.9909,2.9932,2.9954,2.9937,2.9932,2.9933,2.9938,2.9933,2.9933,2.9932,2.9932,2.9932,2.9932,2.9864,2.9869,2.9843,2.9839,2.9833,2.9827,2.9843,2.9838,2.9838,2.9857,2.9858,2.9888,2.9993,3.002,2.9927,2.9928,2.9928,2.9929,2.9929,2.9732,2.9767,2.9728,2.9722,2.9721,2.9703,2.9735,2.9723,2.9722,2.9708,2.9744,2.9817,2.9833,2.9843,2.9865,2.9738,2.9738,2.9738,2.9738,2.9655,2.9666,2.9634,2.9623,2.9616,2.9642,2.96,2.9613,2.9632,2.9634,2.9656,2.9688,2.9696,2.9707,2.972,2.9741,2.9585,2.9585,2.9585,2.9577,2.9589,2.9548,2.9569,2.9571,2.9574,2.9536,2.9524,2.9553,2.9579,2.9637,2.9643,2.9694,2.9709,2.9736,2.9755,2.9795,0,0]}]]